Contract 0x7c67dccb04b67d4666fd97b2a00bb6d9b8d82e3f

 
Txn Hash
Block
From
To
Value [Txn Fee]
0xcae6c32a27649e62d7b61b687f7c2a95a305bc777a4d3af559a98a0a9340a79983969112021-06-18 6:38:451 hr 33 mins ago0x820f92c1b3ad8e962e6c6d9d7caf2a550aec46fb IN  Goatcoin: GOAT Token0 BNB0.00035905
0x48f101782486b75d72417a114fc05400c5c62887ec462c55fdcecb4b8a4d515c83810502021-06-17 17:18:2514 hrs 54 mins ago0x2ab870cf2a9a2e16047e8b95f19b9ddb0a3a7ae5 IN  Goatcoin: GOAT Token0 BNB0.00022134
0x8c28b96e438c9152b278597322dc78b1d1dd8720bc8c26ad0ed3abb941062f6e83788792021-06-17 15:29:0616 hrs 43 mins ago0xaca2993d8ca776dc4f87967473e9d71a07225087 IN  Goatcoin: GOAT Token0 BNB0.00022134
0x69202afde13c61007d5dfebb5d533576d8fdfa454a0e362acb133af386fca6ef83782662021-06-17 14:58:2717 hrs 14 mins ago0x65b67a49262157a1b0e439b95d50626b3d99e9dd IN  Goatcoin: GOAT Token0 BNB0.00022134
0xd81c727a95a6d0615776ea443e4f77cb4b0e48083d94d688fea450214276df0583779722021-06-17 14:43:4517 hrs 28 mins ago0x12c307dc92b9e3fb0895825264726c60e757be57 IN  Goatcoin: GOAT Token0 BNB0.00022134
0x19261883cafc9d5689d74286eec4584f1c50353394fb740405313b6952ca572083755622021-06-17 12:41:4919 hrs 30 mins ago0x7311b2ffa8879175be49953859e3503e5675390a IN  Goatcoin: GOAT Token0 BNB0.00007221
0x6a3ca4e9ee8008375c7ef1020008d3ee93c893c2d45a4642c588dd20e36f329983720852021-06-17 9:45:3122 hrs 26 mins ago0xefbc12b93b397394afed84b1e497d1fe00789188 IN  Goatcoin: GOAT Token0 BNB0.00022134
0x2dff9ce8b92114a460eaad463707ca3df4b5857010ecc56e06f1fe35e2217afb83713712021-06-17 9:08:2423 hrs 4 mins ago0x83239ebfb02b7308cca782340c0cd8154e37a9ae IN  Goatcoin: GOAT Token0 BNB0.00022134
0xfc6fd6376b4e54904e53badff4703f8562d41975011dc0e7b7be8c0ac64e760d83690092021-06-17 7:08:011 day 1 hr ago0xf4d08a836e71b80377e4464251ba9ff4a06550a9 IN  Goatcoin: GOAT Token0 BNB0.00012426
0xaabac47403d5f98980b9b258f6753b3f2eb1fd33f131ca0f30870b7cf86a6e5283690022021-06-17 7:07:401 day 1 hr ago0xf4d08a836e71b80377e4464251ba9ff4a06550a9 IN  Goatcoin: GOAT Token0 BNB0.00022026
0xcd5bd7359cc1061509158bcfc6db2f284c15eba91e7abedca708c9492cbd9dff83687472021-06-17 6:54:551 day 1 hr ago0x65f4827e18d1c722c338f2acc20dc5b941abd4cf IN  Goatcoin: GOAT Token0 BNB0.00007221
0x0e28d77cf883d217c6f84b6b38bce1fa9c4c950791250156f1d5288119399cd883677692021-06-17 6:06:011 day 2 hrs ago0xc4ae5d274fbf82c90ec743cd91388e147362cacb IN  Goatcoin: GOAT Token0 BNB0.00022026
0x6d86575ff29a5b3f5fa3bbb424c4fcf16a9a030b5b2bc3cdd78b38ae428acf6283600262021-06-16 23:37:221 day 8 hrs ago0xb39c40a4e8c56ffb978266d6193e34e17a3c3ff4 IN  Goatcoin: GOAT Token0 BNB0.00022134
0x6e27effebe3fc59a7396fca77b95c6d9d2c380ee59458e39b6b21f6a6ad0080783586052021-06-16 22:26:191 day 9 hrs ago0x2c269bb7c3b1b98b0f0271d3c563187f70732513 IN  Goatcoin: GOAT Token0 BNB0.00022134
0x7721b5e061fcc47fbc7ffeddcbf35bb7da1d1ac6e226614281ec530c019973ec83511292021-06-16 16:09:341 day 16 hrs ago0x1b9443eec6c09b799167190af5e3f7764d7f4f32 IN  Goatcoin: GOAT Token0 BNB0.00022134
0x450e5163c06665420ab8db605bcf5adbd4fe23a7cf50ad13f3ad63a502a5fffa83464352021-06-16 12:14:051 day 19 hrs ago0x28cb382848c66e7a461a19b7c529fead71301293 IN  Goatcoin: GOAT Token0 BNB0.00022134
0xa24ebf430a9600bae25787da78e060db9bcc4ad4e610d6353bea54a3220408a683361912021-06-16 3:37:112 days 4 hrs ago0x0c1919c935333620279c14255832e8d5b4b4a3c5 IN  Goatcoin: GOAT Token0 BNB0.00022134
0xcae6b7efd8b6eea28653adcfd000e4ab739d9e5da1eace3395fbb63c1b77992f83264082021-06-15 19:23:372 days 12 hrs ago0xb16aecfc0e797399a6c0ccd00b83cbb9a0362840 IN  Goatcoin: GOAT Token0 BNB0.00022134
0x26390a7c84ce224a510721f2fa5405188f0547d25bf3d862143f12ed37d2899783199652021-06-15 13:58:182 days 18 hrs ago0x63c3400a06fa661508c8b971194097e1e2be392c IN  Goatcoin: GOAT Token0 BNB0.00022134
0xabfbe9a707f8dbba2685b46c0a9c05243ab1b9ec6fd8b18042affffd3fa54a8b83100322021-06-15 5:30:253 days 2 hrs ago0x4393790836b634c4f3453e1f487c7d3eebccfb58 IN  Goatcoin: GOAT Token0 BNB0.00022134
0xa204397fcf0a6b91fdb47a768a13860b5ef2f13e555424a9a0ce319234edae3f82995042021-06-14 20:35:553 days 11 hrs ago0x9227ad5c19bec621d7a68e9b08dbed413ae5c946 IN  Goatcoin: GOAT Token0 BNB0.000179465
0x392fc48ac403646478cc6905dcfebec882dbcc58b569284d3f9042fa75fc497582974682021-06-14 18:53:083 days 13 hrs ago0xbbe712b3aead4a4090db1f25fd3e92854033ea36 IN  Goatcoin: GOAT Token0 BNB0.00022134
0x5678fba58e2685639f6bb1eba29509d0d8a00b1389f84c187f27575755270b2f82907902021-06-14 13:17:533 days 18 hrs ago0xc0a7535bdaac3d0835de9266d1500b66fa244a19 IN  Goatcoin: GOAT Token0 BNB0.00022134
0xccdb2dd87a50f18ac056be9debbb188670fb5dba27389d79ee5a5a060b5bb5a382905852021-06-14 13:07:383 days 19 hrs ago0x0c8a7d80a742d505bacfde983494b7084c05e04d IN  Goatcoin: GOAT Token0 BNB0.00022134
0xd9b77655ce345643233625af1bab4a5869b0c329ad32cd78f7c14ca3ee31a43282843772021-06-14 7:53:114 days 19 mins ago0xe27fc4a655cf4a8da81292a9ac69027481e0224f IN  Goatcoin: GOAT Token0 BNB0.00022266804
[ Download CSV Export 

OVERVIEW

$GOAT aims to create a platform for NFT space and integrate it with DeFi.

Latest 25 internal transaction
Parent Txn Hash Block From To Value
0x3b78a3c92c2aca212af794376aaba6eb13f7cfe78c8f6bb7e4ceee0fdd35ba7b54702222021-03-07 11:04:03102 days 21 hrs ago 0x4c5dea19b18c1c6fbfcd85afe38f66c1eac443b9 Goatcoin: GOAT Token0 BNB
0x1fe2d7df903405f9990be79195a086643cd5a68770dc7a3481c7600cff6980b554702222021-03-07 11:04:03102 days 21 hrs ago PancakeSwap: GOAT 2 Goatcoin: GOAT Token0 BNB
0x1fe2d7df903405f9990be79195a086643cd5a68770dc7a3481c7600cff6980b554702222021-03-07 11:04:03102 days 21 hrs ago PancakeSwap: Router Goatcoin: GOAT Token0 BNB
0x1fe2d7df903405f9990be79195a086643cd5a68770dc7a3481c7600cff6980b554702222021-03-07 11:04:03102 days 21 hrs ago PancakeSwap: Router Goatcoin: GOAT Token0 BNB
0x1fe2d7df903405f9990be79195a086643cd5a68770dc7a3481c7600cff6980b554702222021-03-07 11:04:03102 days 21 hrs ago 0x456420423953d9e205a3bc65e1605525e54bad9b Goatcoin: GOAT Token0 BNB
0x1fe2d7df903405f9990be79195a086643cd5a68770dc7a3481c7600cff6980b554702222021-03-07 11:04:03102 days 21 hrs ago 0x456420423953d9e205a3bc65e1605525e54bad9b Goatcoin: GOAT Token0 BNB
0xc0e2c1f026e37aa874fcd2ae85cb7ada95fec81e7c3e1433c1ee431414cfb18e54702212021-03-07 11:04:00102 days 21 hrs ago 0x4c5dea19b18c1c6fbfcd85afe38f66c1eac443b9 Goatcoin: GOAT Token0 BNB
0x59617308ee5fa73cdd0632c4a84874ef0e14d736f3d67309fabe4a86a2f2611d54702212021-03-07 11:04:00102 days 21 hrs ago 0x764b8d9306ac90770f7bd98a2876a2a66c86af67 Goatcoin: GOAT Token0 BNB
0x59617308ee5fa73cdd0632c4a84874ef0e14d736f3d67309fabe4a86a2f2611d54702212021-03-07 11:04:00102 days 21 hrs ago 0x764b8d9306ac90770f7bd98a2876a2a66c86af67 Goatcoin: GOAT Token0 BNB
0x33ab47b4243c3423e184bcca218f7a778ac03ef2329362bfa022fc6fc06b716b54702202021-03-07 11:03:57102 days 21 hrs ago 0x4c5dea19b18c1c6fbfcd85afe38f66c1eac443b9 Goatcoin: GOAT Token0 BNB
0xd3ae61f0429be860b962b3ad6628d81c2878e09b2c1786cc6aeb66b5b3b9172454702202021-03-07 11:03:57102 days 21 hrs ago 0x4c5dea19b18c1c6fbfcd85afe38f66c1eac443b9 Goatcoin: GOAT Token0 BNB
0xfc925c8e0dc97d2ff542f8996fe856dbc1db827e8e63ee2a0feaa8664a874be754702202021-03-07 11:03:57102 days 21 hrs ago 0x764b8d9306ac90770f7bd98a2876a2a66c86af67 Goatcoin: GOAT Token0 BNB
0x3320e531225eb6bb80354d895f1d8ef0b7ac95760cba0708309e965e14764a2354702202021-03-07 11:03:57102 days 21 hrs ago PancakeSwap: GOAT 2 Goatcoin: GOAT Token0 BNB
0x3320e531225eb6bb80354d895f1d8ef0b7ac95760cba0708309e965e14764a2354702202021-03-07 11:03:57102 days 21 hrs ago PancakeSwap: GOAT 2 Goatcoin: GOAT Token0 BNB
0x1b1142caef638482f0651afc0f1ef88e2a52543c8e1c5acd26988e7f8068b41554702202021-03-07 11:03:57102 days 21 hrs ago 0x764b8d9306ac90770f7bd98a2876a2a66c86af67 Goatcoin: GOAT Token0 BNB
0x483541cdf6e70d446d596400996cc903204539c3fe31c66ec27dbdc905ce819854702202021-03-07 11:03:57102 days 21 hrs ago 0x764b8d9306ac90770f7bd98a2876a2a66c86af67 Goatcoin: GOAT Token0 BNB
0x4fafc97a6b492a0a81115466bfdaeb4746f5d77eecd34146fc0920087e5cf4c354702202021-03-07 11:03:57102 days 21 hrs ago 0x764b8d9306ac90770f7bd98a2876a2a66c86af67 Goatcoin: GOAT Token0 BNB
0x02e8a21b3e6ec7d2c838f8399aff2cb023c0ce347fca15178b1efa3ee288174154702202021-03-07 11:03:57102 days 21 hrs ago 0x764b8d9306ac90770f7bd98a2876a2a66c86af67 Goatcoin: GOAT Token0 BNB
0xee2d651888320faabee8a9edc6fd183d912895eaea9c006be60c3d63326096f654702202021-03-07 11:03:57102 days 21 hrs ago 0x764b8d9306ac90770f7bd98a2876a2a66c86af67 Goatcoin: GOAT Token0 BNB
0x8e968a6e8b622e1c4f80b151a23b057cc888373f7a5c48aa2e6181c2814dfeb054702202021-03-07 11:03:57102 days 21 hrs ago PancakeSwap: GOAT 2 Goatcoin: GOAT Token0 BNB
0x8e968a6e8b622e1c4f80b151a23b057cc888373f7a5c48aa2e6181c2814dfeb054702202021-03-07 11:03:57102 days 21 hrs ago PancakeSwap: Router Goatcoin: GOAT Token0 BNB
0x8e968a6e8b622e1c4f80b151a23b057cc888373f7a5c48aa2e6181c2814dfeb054702202021-03-07 11:03:57102 days 21 hrs ago PancakeSwap: Router Goatcoin: GOAT Token0 BNB
0x8e968a6e8b622e1c4f80b151a23b057cc888373f7a5c48aa2e6181c2814dfeb054702202021-03-07 11:03:57102 days 21 hrs ago 0x456420423953d9e205a3bc65e1605525e54bad9b Goatcoin: GOAT Token0 BNB
0x8e968a6e8b622e1c4f80b151a23b057cc888373f7a5c48aa2e6181c2814dfeb054702202021-03-07 11:03:57102 days 21 hrs ago 0x456420423953d9e205a3bc65e1605525e54bad9b Goatcoin: GOAT Token0 BNB
0x96945b6bcf23071e0ce299ce5908657e5f2f83a700bcdec6d3d5d4aa52c14b7154702202021-03-07 11:03:57102 days 21 hrs ago PancakeSwap: GOAT 2 Goatcoin: GOAT Token0 BNB
[ Download CSV Export 
Loading

Contract Source Code Verified (Exact Match)

Contract Name:
Goatcoin

Compiler Version
v0.5.17+commit.d19bba13

Optimization Enabled:
Yes with 999 runs

Other Settings:
default evmVersion, MIT license
/**
 *Submitted for verification at BscScan.com on 2021-02-16
*/

pragma solidity ^0.5.0;

// ----------------------------------------------------------------------------
// BEP Token Standard #20 Interface
//
// ----------------------------------------------------------------------------
contract BEP20Interface {
    function totalSupply() public view returns (uint);
    function balanceOf(address tokenOwner) public view returns (uint balance);
    function allowance(address tokenOwner, address spender) public view returns (uint remaining);
    function transfer(address to, uint tokens) public returns (bool success);
    function approve(address spender, uint tokens) public returns (bool success);
    function transferFrom(address from, address to, uint tokens) public returns (bool success);

    event Transfer(address indexed from, address indexed to, uint tokens);
    event Approval(address indexed tokenOwner, address indexed spender, uint tokens);
}

// ----------------------------------------------------------------------------
// Safe Math Library 
// ----------------------------------------------------------------------------
contract SafeMath {
    function safeAdd(uint a, uint b) public pure returns (uint c) {
        c = a + b;
        require(c >= a);
    }
    function safeSub(uint a, uint b) public pure returns (uint c) {
        require(b <= a); c = a - b; } function safeMul(uint a, uint b) public pure returns (uint c) { c = a * b; require(a == 0 || c / a == b); } function safeDiv(uint a, uint b) public pure returns (uint c) { require(b > 0);
        c = a / b;
    }
}


contract Goatcoin is BEP20Interface, SafeMath {
    string public name;
    string public symbol;
    uint8 public decimals; // 18 decimals is the strongly suggested default, avoid changing it
    
    uint256 public _totalSupply;
    
    mapping(address => uint) balances;
    mapping(address => mapping(address => uint)) allowed;
    
    /**
     * Constrctor function
     *
     * Initializes contract with initial supply tokens to the creator of the contract
     */
    constructor() public {
        name = "Goatcoin";
        symbol = "GOAT";
        decimals = 18;
        _totalSupply = 999000000000000000000;
        
        balances[msg.sender] = _totalSupply;
        emit Transfer(address(0), msg.sender, _totalSupply);
    }
    
    function totalSupply() public view returns (uint) {
        return _totalSupply  - balances[address(0)];
    }
    
    function balanceOf(address tokenOwner) public view returns (uint balance) {
        return balances[tokenOwner];
    }
    
    function allowance(address tokenOwner, address spender) public view returns (uint remaining) {
        return allowed[tokenOwner][spender];
    }
    
    function approve(address spender, uint tokens) public returns (bool success) {
        allowed[msg.sender][spender] = tokens;
        emit Approval(msg.sender, spender, tokens);
        return true;
    }
    
    function transfer(address to, uint tokens) public returns (bool success) {
        balances[msg.sender] = safeSub(balances[msg.sender], tokens);
        balances[to] = safeAdd(balances[to], tokens);
        emit Transfer(msg.sender, to, tokens);
        return true;
    }
    
    function transferFrom(address from, address to, uint tokens) public returns (bool success) {
        balances[from] = safeSub(balances[from], tokens);
        allowed[from][msg.sender] = safeSub(allowed[from][msg.sender], tokens);
        balances[to] = safeAdd(balances[to], tokens);
        emit Transfer(from, to, tokens);
        return true;
    }
}

Contract ABI

[{"inputs":[],"payable":false,"stateMutability":"nonpayable","type":"constructor"},{"anonymous":false,"inputs":[{"indexed":true,"internalType":"address","name":"tokenOwner","type":"address"},{"indexed":true,"internalType":"address","name":"spender","type":"address"},{"indexed":false,"internalType":"uint256","name":"tokens","type":"uint256"}],"name":"Approval","type":"event"},{"anonymous":false,"inputs":[{"indexed":true,"internalType":"address","name":"from","type":"address"},{"indexed":true,"internalType":"address","name":"to","type":"address"},{"indexed":false,"internalType":"uint256","name":"tokens","type":"uint256"}],"name":"Transfer","type":"event"},{"constant":true,"inputs":[],"name":"_totalSupply","outputs":[{"internalType":"uint256","name":"","type":"uint256"}],"payable":false,"stateMutability":"view","type":"function"},{"constant":true,"inputs":[{"internalType":"address","name":"tokenOwner","type":"address"},{"internalType":"address","name":"spender","type":"address"}],"name":"allowance","outputs":[{"internalType":"uint256","name":"remaining","type":"uint256"}],"payable":false,"stateMutability":"view","type":"function"},{"constant":false,"inputs":[{"internalType":"address","name":"spender","type":"address"},{"internalType":"uint256","name":"tokens","type":"uint256"}],"name":"approve","outputs":[{"internalType":"bool","name":"success","type":"bool"}],"payable":false,"stateMutability":"nonpayable","type":"function"},{"constant":true,"inputs":[{"internalType":"address","name":"tokenOwner","type":"address"}],"name":"balanceOf","outputs":[{"internalType":"uint256","name":"balance","type":"uint256"}],"payable":false,"stateMutability":"view","type":"function"},{"constant":true,"inputs":[],"name":"decimals","outputs":[{"internalType":"uint8","name":"","type":"uint8"}],"payable":false,"stateMutability":"view","type":"function"},{"constant":true,"inputs":[],"name":"name","outputs":[{"internalType":"string","name":"","type":"string"}],"payable":false,"stateMutability":"view","type":"function"},{"constant":true,"inputs":[{"internalType":"uint256","name":"a","type":"uint256"},{"internalType":"uint256","name":"b","type":"uint256"}],"name":"safeAdd","outputs":[{"internalType":"uint256","name":"c","type":"uint256"}],"payable":false,"stateMutability":"pure","type":"function"},{"constant":true,"inputs":[{"internalType":"uint256","name":"a","type":"uint256"},{"internalType":"uint256","name":"b","type":"uint256"}],"name":"safeDiv","outputs":[{"internalType":"uint256","name":"c","type":"uint256"}],"payable":false,"stateMutability":"pure","type":"function"},{"constant":true,"inputs":[{"internalType":"uint256","name":"a","type":"uint256"},{"internalType":"uint256","name":"b","type":"uint256"}],"name":"safeMul","outputs":[{"internalType":"uint256","name":"c","type":"uint256"}],"payable":false,"stateMutability":"pure","type":"function"},{"constant":true,"inputs":[{"internalType":"uint256","name":"a","type":"uint256"},{"internalType":"uint256","name":"b","type":"uint256"}],"name":"safeSub","outputs":[{"internalType":"uint256","name":"c","type":"uint256"}],"payable":false,"stateMutability":"pure","type":"function"},{"constant":true,"inputs":[],"name":"symbol","outputs":[{"internalType":"string","name":"","type":"string"}],"payable":false,"stateMutability":"view","type":"function"},{"constant":true,"inputs":[],"name":"totalSupply","outputs":[{"internalType":"uint256","name":"","type":"uint256"}],"payable":false,"stateMutability":"view","type":"function"},{"constant":false,"inputs":[{"internalType":"address","name":"to","type":"address"},{"internalType":"uint256","name":"tokens","type":"uint256"}],"name":"transfer","outputs":[{"internalType":"bool","name":"success","type":"bool"}],"payable":false,"stateMutability":"nonpayable","type":"function"},{"constant":false,"inputs":[{"internalType":"address","name":"from","type":"address"},{"internalType":"address","name":"to","type":"address"},{"internalType":"uint256","name":"tokens","type":"uint256"}],"name":"transferFrom","outputs":[{"internalType":"bool","name":"success","type":"bool"}],"payable":false,"stateMutability":"nonpayable","type":"function"}]

608060405234801561001057600080fd5b506040805180820190915260088082526723b7b0ba31b7b4b760c11b6020909201918252610040916000916100d7565b506040805180820190915260048082526311d3d05560e21b602090920191825261006c916001916100d7565b506002805460ff19166012179055683627e8f712373c00006003819055336000818152600460209081526040808320859055805194855251929391927fddf252ad1be2c89b69c2b068fc378daa952ba7f163c4a11628f55a4df523b3ef9281900390910190a3610172565b828054600181600116156101000203166002900490600052602060002090601f016020900481019282601f1061011857805160ff1916838001178555610145565b82800160010185558215610145579182015b8281111561014557825182559160200191906001019061012a565b50610151929150610155565b5090565b61016f91905b80821115610151576000815560010161015b565b90565b610743806101816000396000f3fe608060405234801561001057600080fd5b50600436106100ea5760003560e01c806395d89b411161008c578063b5931f7c11610066578063b5931f7c1461029f578063d05c78da146102c2578063dd62ed3e146102e5578063e6cb901314610313576100ea565b806395d89b4114610248578063a293d1e814610250578063a9059cbb14610273576100ea565b806323b872dd116100c857806323b872dd146101c6578063313ce567146101fc5780633eaaf86b1461021a57806370a0823114610222576100ea565b806306fdde03146100ef578063095ea7b31461016c57806318160ddd146101ac575b600080fd5b6100f7610336565b6040805160208082528351818301528351919283929083019185019080838360005b83811015610131578181015183820152602001610119565b50505050905090810190601f16801561015e5780820380516001836020036101000a031916815260200191505b509250505060405180910390f35b6101986004803603604081101561018257600080fd5b506001600160a01b0381351690602001356103c4565b604080519115158252519081900360200190f35b6101b461042b565b60408051918252519081900360200190f35b610198600480360360608110156101dc57600080fd5b506001600160a01b0381358116916020810135909116906040013561045d565b610204610556565b6040805160ff9092168252519081900360200190f35b6101b461055f565b6101b46004803603602081101561023857600080fd5b50356001600160a01b0316610565565b6100f7610580565b6101b46004803603604081101561026657600080fd5b50803590602001356105da565b6101986004803603604081101561028957600080fd5b506001600160a01b0381351690602001356105ef565b6101b4600480360360408110156102b557600080fd5b5080359060200135610693565b6101b4600480360360408110156102d857600080fd5b50803590602001356106b2565b6101b4600480360360408110156102fb57600080fd5b506001600160a01b03813581169160200135166106d3565b6101b46004803603604081101561032957600080fd5b50803590602001356106fe565b6000805460408051602060026001851615610100026000190190941693909304601f810184900484028201840190925281815292918301828280156103bc5780601f10610391576101008083540402835291602001916103bc565b820191906000526020600020905b81548152906001019060200180831161039f57829003601f168201915b505050505081565b3360008181526005602090815260408083206001600160a01b038716808552908352818420869055815186815291519394909390927f8c5be1e5ebec7d5bd14f71427d1e84f3dd0314c0f7b2291e5b200ac8c7c3b925928290030190a35060015b92915050565b6000805260046020527f17ef568e3e12ab5b9c7254a8d58478811de00f9e6eb34345acd53bf8fd09d3ec546003540390565b6001600160a01b03831660009081526004602052604081205461048090836105da565b6001600160a01b03851660009081526004602090815260408083209390935560058152828220338352905220546104b790836105da565b6001600160a01b0380861660009081526005602090815260408083203384528252808320949094559186168152600490915220546104f590836106fe565b6001600160a01b0380851660008181526004602090815260409182902094909455805186815290519193928816927fddf252ad1be2c89b69c2b068fc378daa952ba7f163c4a11628f55a4df523b3ef92918290030190a35060019392505050565b60025460ff1681565b60035481565b6001600160a01b031660009081526004602052604090205490565b60018054604080516020600284861615610100026000190190941693909304601f810184900484028201840190925281815292918301828280156103bc5780601f10610391576101008083540402835291602001916103bc565b6000828211156105e957600080fd5b50900390565b3360009081526004602052604081205461060990836105da565b33600090815260046020526040808220929092556001600160a01b0385168152205461063590836106fe565b6001600160a01b0384166000818152600460209081526040918290209390935580518581529051919233927fddf252ad1be2c89b69c2b068fc378daa952ba7f163c4a11628f55a4df523b3ef9281900390910190a350600192915050565b60008082116106a157600080fd5b8183816106aa57fe5b049392505050565b8181028215806106ca5750818382816106c757fe5b04145b61042557600080fd5b6001600160a01b03918216600090815260056020908152604080832093909416825291909152205490565b8181018281101561042557600080fdfea265627a7a72315820b81d4fc6ce349d173dfa9b531f07688dedf92e696c88e1a4e2dcc89a59bb440364736f6c63430005110032

Deployed ByteCode Sourcemap

1579:2062:0:-;;;;8:9:-1;5:2;;;30:1;27;20:12;5:2;1579:2062:0;;;;;;;;;;;;;;;;;;;;;;;;;;;;;;;;;;;;;;;;;;;;;;;;;;;;;;;;;;;;;;;;;;;;;;;;;;;;;;;;;;;;;;;;;;;;;;;;;;;;;;;;;;;;1632:18;;;:::i;:::-;;;;;;;;;;;;;;;;;;;;;;;;;;;;;;;8:100:-1;33:3;30:1;27:10;8:100;;;90:11;;;84:18;71:11;;;64:39;52:2;45:10;8:100;;;12:14;1632:18:0;;;;;;;;;;;;;;;;;;;;;;;;;;;;;;;;;;;;;;;;;;;;;;;;2771:208;;;;;;13:2:-1;8:3;5:11;2:2;;;29:1;26;19:12;2:2;-1:-1;;;;;;2771:208:0;;;;;;;;:::i;:::-;;;;;;;;;;;;;;;;;;2356:112;;;:::i;:::-;;;;;;;;;;;;;;;;3280:358;;;;;;13:2:-1;8:3;5:11;2:2;;;29:1;26;19:12;2:2;-1:-1;;;;;;3280:358:0;;;;;;;;;;;;;;;;;:::i;1684:21::-;;;:::i;:::-;;;;;;;;;;;;;;;;;;;1786:27;;;:::i;2480:120::-;;;;;;13:2:-1;8:3;5:11;2:2;;;29:1;26;19:12;2:2;-1:-1;2480:120:0;-1:-1:-1;;;;;2480:120:0;;:::i;1657:20::-;;;:::i;1253:102::-;;;;;;13:2:-1;8:3;5:11;2:2;;;29:1;26;19:12;2:2;-1:-1;1253:102:0;;;;;;;:::i;2991:277::-;;;;;;13:2:-1;8:3;5:11;2:2;;;29:1;26;19:12;2:2;-1:-1;;;;;;2991:277:0;;;;;;;;:::i;1464:106::-;;;;;;13:2:-1;8:3;5:11;2:2;;;29:1;26;19:12;2:2;-1:-1;1464:106:0;;;;;;;:::i;1356:107::-;;;;;;13:2:-1;8:3;5:11;2:2;;;29:1;26;19:12;2:2;-1:-1;1356:107:0;;;;;;;:::i;2612:147::-;;;;;;13:2:-1;8:3;5:11;2:2;;;29:1;26;19:12;2:2;-1:-1;;;;;;2612:147:0;;;;;;;;;;:::i;1131:116::-;;;;;;13:2:-1;8:3;5:11;2:2;;;29:1;26;19:12;2:2;-1:-1;1131:116:0;;;;;;;:::i;1632:18::-;;;;;;;;;;;;;;;-1:-1:-1;;1632:18:0;;;;;;;;;;;;;;;;;;;;;;;;;;;;;;;;;;;;;;;;;;;;;;;;;;;;;;;;;;;;;;;;;;;;;;;;;;;;;;;;;;;;;;;;;;;;;;;;;:::o;2771:208::-;2867:10;2834:12;2859:19;;;:7;:19;;;;;;;;-1:-1:-1;;;;;2859:28:0;;;;;;;;;;;:37;;;2912;;;;;;;2834:12;;2859:28;;2867:10;;2912:37;;;;;;;;-1:-1:-1;2967:4:0;2771:208;;;;;:::o;2356:112::-;2400:4;2440:20;;:8;:20;;;;2424:12;;:36;2356:112;:::o;3280:358::-;-1:-1:-1;;;;;3407:14:0;;3357:12;3407:14;;;:8;:14;;;;;;3399:31;;3423:6;3399:7;:31::i;:::-;-1:-1:-1;;;;;3382:14:0;;;;;;:8;:14;;;;;;;;:48;;;;3477:7;:13;;;;;3491:10;3477:25;;;;;;3469:42;;3504:6;3469:7;:42::i;:::-;-1:-1:-1;;;;;3441:13:0;;;;;;;:7;:13;;;;;;;;3455:10;3441:25;;;;;;;:70;;;;3545:12;;;;;:8;:12;;;;;3537:29;;3559:6;3537:7;:29::i;:::-;-1:-1:-1;;;;;3522:12:0;;;;;;;:8;:12;;;;;;;;;:44;;;;3582:26;;;;;;;3522:12;;3582:26;;;;;;;;;;;;;-1:-1:-1;3626:4:0;3280:358;;;;;:::o;1684:21::-;;;;;;:::o;1786:27::-;;;;:::o;2480:120::-;-1:-1:-1;;;;;2572:20:0;2540:12;2572:20;;;:8;:20;;;;;;;2480:120::o;1657:20::-;;;;;;;;;;;;;;;-1:-1:-1;;1657:20:0;;;;;;;;;;;;;;;;;;;;;;;;;;;;;;;;;;;;;;;;;;;;;;;;;;;;;;;1253:102;1307:6;1339:1;1334;:6;;1326:15;;;;;;-1:-1:-1;1347:5:0;;;1253:102::o;2991:277::-;3115:10;3050:12;3106:20;;;:8;:20;;;;;;3098:37;;3128:6;3098:7;:37::i;:::-;3084:10;3075:20;;;;:8;:20;;;;;;:60;;;;-1:-1:-1;;;;;3169:12:0;;;;;;3161:29;;3183:6;3161:7;:29::i;:::-;-1:-1:-1;;;;;3146:12:0;;;;;;:8;:12;;;;;;;;;:44;;;;3206:32;;;;;;;3146:12;;3215:10;;3206:32;;;;;;;;;;-1:-1:-1;3256:4:0;2991:277;;;;:::o;1464:106::-;1518:6;1540:1;1536;:5;1528:14;;;;;;1561:1;1557;:5;;;;;;;1464:106;-1:-1:-1;;;1464:106:0:o;1356:107::-;1424:5;;;1439:6;;;:20;;;1458:1;1453;1449;:5;;;;;;:10;1439:20;1431:29;;;;;2612:147;-1:-1:-1;;;;;2723:19:0;;;2689:14;2723:19;;;:7;:19;;;;;;;;:28;;;;;;;;;;;;;2612:147::o;1131:116::-;1208:5;;;1232:6;;;;1224:15;;;;

Swarm Source

bzzr://b81d4fc6ce349d173dfa9b531f07688dedf92e696c88e1a4e2dcc89a59bb4403
Block Transaction Gas Used Reward
Age Block Fee Address BC Fee Address Voting Power Jailed Incoming
Block Uncle Number Difficulty Gas Used Reward
Loading
Loading
Make sure to use the "Vote Down" button for any spammy posts, and the "Vote Up" for interesting conversations.